Location: Peterborough
(44.3091°N, 78.3197°W)
Time: 05:37:41
(UTC-04:00)

Vanguard 1 Rocket - Pass Details

Date: 31 March 2023
Orbit: 655 x 4220 km, 34.3° (Epoch: 04 June)

Event Time Altitude Azimuth Distance (km) Brightness Sun altitude
Rises 23:48:38 0° 249° (WSW) 8,459 12.4 -37.7°
Reaches altitude 10° 23:54:46 10° 247° (WSW) 7,388 12.0 -38.2°
Enters shadow 00:16:36 58° 195° (SSW) 3,699 10.0 -39.7°
Maximum altitude 00:18:35 60° 176° (S) 3,522 - -39.9°
Drops below altitude 10° 00:32:33 10° 101° (E) 4,626 - -40.6°
Sets 00:35:23 0° 97° (E) 5,266 - -40.7°
